Regional Weather Roundup
Issued by NWS

Home | Current Version | Previous Version | Text Only | Print | Product List | Glossary Off
Versions: 1 2 3 4 5 6 7 8 9 10 11 12 13 14 15 16 17 18 19 20 21 22 23 24 25 26 27 28 29 30 31 32 33 34 35 36 37 38 39 40 41 42 43 44 45 46 47 48 49 50

000
ASUS43 KMPX 251801
RWRMN
WEATHER ROUNDUP FOR MINNESOTA
NATIONAL WEATHER SERVICE TWIN CITIES/CHANHASSEN MN
100 PM CDT FRI JUL 25 2014


NOTE: "FAIR" INDICATES FEW OR NO CLOUDS BELOW 12,000 FEET WITH NO
SIGNIFICANT WEATHER AND/OR OBSTRUCTIONS TO VISIBILITY. N/A MEANS
CURRENT SKY AND/OR WEATHER CONDITIONS ARE NOT AVAILABLE.

MNZ060>063-068>070-251900-
   Twin Cities Metro

CITY           SKY/WX    TMP DP  RH WIND       PRES   REMARKS
TWIN CITIES    PTSUNNY   76  66  71 S12       29.80F
6HR MIN TEMP:  64; 6HR MAX TEMP:  76; 6HR PCP:  0.01;

ST PAUL        CLOUDY    73  65  75 S3        29.81F
CRYSTAL        MOSUNNY   77  66  68 VRB6      29.78F
BLAINE         CLOUDY    75  68  78 S9        29.80F
LAKEVILLE      CLOUDY    73  66  78 S5        29.81S
EDEN PRAIRIE   PTSUNNY   77  67  71 SW10      29.79F
6HR MIN TEMP:  65; 6HR MAX TEMP:  79; 6HR PCP: TRACE;

SOUTH ST PAUL  CLOUDY    74  65  73 SW5       29.81F
LAKE ELMO      CLOUDY    72  66  83 SW10      29.83S
$$
MNZ001>005-007-008-013>017-022>024-027-028-251900-
   Northwest Minnesota

CITY           SKY/WX    TMP DP  RH WIND       PRES   REMARKS
BEMIDJI        CLOUDY    73  64  74 W5        29.77F
HALLOCK        MOSUNNY   79  68  69 S8        29.71F
ROSEAU         MOSUNNY   73  66  78 SE5       29.74F
WARROAD        CLOUDY    72  66  83 S3        29.75F
THIEF RVR FALL PTSUNNY   72  64  78 SW6       29.76S
CROOKSTON      PTSUNNY   72  66  83 W3        29.76S
FOSSTON        CLOUDY    72  64  78 W6        29.78S
DETROIT LAKES  CLOUDY    73  64  73 W5        29.80S
MOORHEAD       MOSUNNY   73  70  88 NW3       29.77F
PARK RAPIDS    SUNNY     77  65  66 VRB7      29.78S
$$
MNZ006-009>011-018-025>026-251900-
   North Central Minnesota

CITY           SKY/WX    TMP DP  RH WIND       PRES   REMARKS
BAUDETTE       CLOUDY    73  63  70 CALM      29.77S
FLAG ISLAND    PTSUNNY   72  64  78 S6        29.73F
INTL FALLS     CLOUDY    73  63  70 W3        29.76F
6HR MIN TEMP:  62; 6HR MAX TEMP:  74;

WASKISH        CLOUDY    70  64  83 SW3       29.77F
BIG FORK       PTSUNNY   70  63  78 S1        29.79S
LONGVILLE      PTSUNNY   77  66  69 W9        29.78R
GRAND RAPIDS   PTSUNNY   70  63  78 CALM      29.79S
CRANE LAKE     PTSUNNY   72  63  73 CALM      29.79F
ORR            CLOUDY    72  61  68 S3        29.77F
COOK           CLOUDY    70  63  78 S3        29.80F
$$
MNZ012-019>021-037-251900-
   Northeast Minnesota

CITY           SKY/WX    TMP DP  RH WIND       PRES   REMARKS
DULUTH         CLOUDY    66  61  84 S6        29.82S
6HR MIN TEMP:  62; 6HR MAX TEMP:  67;

ELY            PTSUNNY   70  61  73 W6        29.81S
HIBBING          N/A     70  62  76 CALM      29.80F
EVELETH        CLOUDY    68  61  77 S3        29.81F
DULUTH HARBOR  CLOUDY    59  55  88 CALM      29.82S
TWO HARBORS    CLOUDY    70  61  73 SW3       29.80F
SILVER BAY     CLOUDY    66  64  94 SE5       29.80F
GRAND MARAIS     N/A     59  52  77 CALM      29.81R
G MARAIS ARPRT CLOUDY    64  57  77 S5        29.85R
$$
MNZ029>031-032-039>041-046>048-054>057-064-251900-
   West Central Minnesota

CITY           SKY/WX    TMP DP  RH WIND       PRES   REMARKS
FERGUS FALLS   CLOUDY    73  64  73 SW6       29.76S
WHEATON        MOSUNNY   72  66  83 W3        29.78R
MORRIS         SUNNY     77  66  69 SW7       29.76F
ALEXANDRIA     CLOUDY    75  67  76 S14       29.78F
ELBOW LAKE     CLOUDY    72  66  83 SW8       29.77R
WADENA         CLOUDY    73  66  78 S7        29.78S
GLENWOOD       MOSUNNY   75  66  73 SW13      29.79F
APPLETON       PTSUNNY   81  66  61 SW7       29.76S
BENSON         CLOUDY    79  68  69 SW7       29.77S
ORTONVILLE     CLOUDY    79  66  65 CALM      29.76S
MADISON        SUNNY     82  70  65 SW9       29.76R
WILLMAR        FAIR      77  66  69 S3        29.79S
$$
MNZ033>034-036-042>043-049>051-058-059-251900-
   Central Minnesota

CITY           SKY/WX    TMP DP  RH WIND       PRES   REMARKS
ST CLOUD       PTSUNNY   82  67  60 S15G23    29.77F
6HR MIN TEMP:  66; 6HR MAX TEMP:  82;

SAUK CENTRE    CLOUDY    76  66  73 S9        29.78F
PAYNESVILLE    MOSUNNY   76  65  70 SE13      29.78F HAZE
AITKIN         MOSUNNY   81  70  69 S8        29.76F
PINE RIVER     MOSUNNY   75  66  73 SW6       29.81S
BRAINERD       SUNNY     76  65  68 SW9       29.78F
STAPLES        CLOUDY    73  64  73 SW6       29.78S
LONG PRAIRIE   CLOUDY    75  66  73 S13G21    29.78S
LITTLE FALLS   MOSUNNY   77  64  65 SW8       29.78R
LITCHFIELD     MOSUNNY   79  70  73 SE6       29.79S
BUFFALO        MOSUNNY   78  65  64 S10G16    29.79F
MAPLE LAKE     PTSUNNY   79  69  73 SW6       29.79F
$$
MNZ037-044-045-052-053-251900-
   East Central Minnesota

CITY           SKY/WX    TMP DP  RH WIND       PRES   REMARKS
PRINCETON      MOSUNNY   81  68  65 S9G18     29.78S
MORA           PTSUNNY   73  64  73 SW9       29.80S
CAMBRIDGE      MOSUNNY   79  64  61 SW8       29.77F
RUSH CITY      CLOUDY    74  66  76 S5        29.80F
MOOSE LAKE     CLOUDY    72  64  78 CALM      29.79S
HINCKLEY       CLOUDY    73  68  83 SW6       29.80S
CLOQUET        CLOUDY    66  63  88 E5        29.81F
MCGREGOR       PTSUNNY   77  66  69 SW7       29.78F
$$
MNZ071>073-080-081-089-090-097-098-251900-
   Southwest Minnesota

CITY           SKY/WX    TMP DP  RH WIND       PRES   REMARKS
MONTEVIDEO     MOSUNNY   81  73  78 SW7       29.77S
GRANITE FALLS  MOSUNNY   79  69  71 S9        29.78S
CANBY          PTSUNNY   83  68  61 SW7       29.77F
MARSHALL       SUNNY     81  66  61 SW13      29.76F
REDWOOD FALLS  CLOUDY    79  66  64 SW12      29.77F
OLIVIA         MOSUNNY   77  64  65 S9        29.77S
PIPESTONE      MOSUNNY   75  68  78 S9        29.80F
WINDOM         SUNNY     79  64  61 S14       29.80S
WORTHINGTON    SUNNY     75  66  73 S8        29.82S
JACKSON        SUNNY     77  63  61 S16       29.81F
TRACY          SUNNY     79  68  70 S10G17    29.79S
SLAYTON        SUNNY     77  66  69 S6        29.81S
$$
MNZ065>067-074>077-082>085-091>093-251900-
   South Central Minnesota

CITY           SKY/WX    TMP DP  RH WIND       PRES   REMARKS
MANKATO        CLOUDY    79  64  61 S17G25    29.80F
NEW ULM        SUNNY     79  66  65 S15       29.78S
ST JAMES       SUNNY     79  64  61 S14G23    29.79F
FAIRMONT       MOSUNNY   79  59  50 S22       29.80F
GLENCOE        MOSUNNY   79  64  60 S13G22    29.79S
FARIBAULT      MOSUNNY   81  63  54 S9G16     29.81F
OWATONNA       MOSUNNY   79  66  65 S13       29.82S
WASECA         PTSUNNY   77  61  57 S17       29.83F
ALBERT LEA     MOSUNNY   79  66  65 SW8G17    29.82F
$$
MNZ078>079-086>088-094>096-251900-
   Southeast Minnesota

CITY           SKY/WX    TMP DP  RH WIND       PRES   REMARKS
ROCHESTER      MOSUNNY   75  65  70 S15G24    29.85F
6HR MIN TEMP:  62; 6HR MAX TEMP:  76; 6HR PCP: TRACE;

RED WING       CLOUDY    75  64  69 SW10      29.81S
STANTON        PTSUNNY   78  66  67 S8G18     29.80S
DODGE CENTER   SUNNY     75  66  73 S18       29.83F
WINONA         CLOUDY    73  64  73 SW6       29.86R
AUSTIN         MOSUNNY   75  66  73 S14       29.83F
PRESTON        PTSUNNY   71  67  87 S12G20    29.87F
$$
ABBREVIATIONS USED IN REMARKS
   TC - TEMPERATURES IN CELSIUS
  WCI - WIND CHILL INDEX
   HX - HEAT INDEX
  VSB - VISIBILITY
$$



USA.gov is the U.S. government's official web portal to all federal, state and local government web resources and services.